Погода в Атлашеве

Россия / Чувашская Республика     56°00′30″N   47°33′43″E
темп.,
°C
ветер,
м/с
пор.,
м/с
влажн.,
%
обл.,
%
осадки,
мм/ч
давл.,
гПа
погр.,
м
13 апреля, вт
вт1300:00+4вюв3109488 0.0 1036171
03:00+3юв2397100 0.0 103638
06:00+3вюв26100100 0.1 1035110
09:00+6юв38100100 0.1 1035225
12:00+9ююв469799 0.0 1034235
15:00+15ююв597452 0.0 1032484
18:00+11ююв377952 0.0 1031108
21:00+8ю34805 0.0 103150
14 апреля, ср
ср1400:00+7ю33795 0.0 103133
03:00+6ю3378100 0.0 103028
06:00+6ю337263 0.0 103038
09:00+12ю36585 0.0 1029267
12:00+17ююв56475 0.0 1027758
15:00+18ю57450 0.0 1026972
18:00+14ююв35695 0.0 102495
21:00+11ююв35855 0.0 102462
15 апреля, чт
чт1500:00+10ю33880 0.0 102333
03:00+9ю22891 0.0 102217
06:00+9ю22890 0.0 102236
09:00+14ю34710 0.0 1021408
12:00+17ююз335839 0.0 10201195
15:00+17ююз2253100 0.1 10181401
18:00+15сз116398 0.0 101811
21:00
16 апреля, пт
пт1600:00+12ссз117666 0.0 101813
03:00+9с379762 0.0 1018146
06:00+8ссв589299 0.0 1019362
09:00+8ссв5988100 0.0 1020459
12:00+10св577492 0.0 1021767
15:00+10св5772100 0.0 10211006
18:00+9св587361 0.0 1022665
21:00+7св48699 0.0 1023403
17 апреля, сб
сб1700:00+3св378761 0.0 1024144
03:00+2св367772 0.0 1025111
06:00+2св377664 0.0 1026175
09:00+7ссв46515 0.0 1026705
12:00+10ссв56405 0.0 10251716
15:00+10ссв673965 0.0 10251970
18:00+8ссв610495 0.0 1026626
21:00+3ссв39604 0.0 1028202